Weather History for K4O4 - November, 2013

Change the Weather History Date:

Saturday, November 30, 2013

  Actual Average (KDEQ) Record (KDEQ)
Temperature  
Mean Temperature 48 °F 46 °F  
Max Temperature 64 °F 59 °F 78 °F (2014)
Min Temperature 32 °F 33 °F 12 °F (1976)
Degree Days  
Heating Degree Days 17 19  
Month to date heating degree days 393  
Since 1 July heating degree days 526  
Cooling Degree Days 0 0  
Month to date cooling degree days 7  
Year to date cooling degree days 1941  
Moisture  
Dew Point 38 °F    
Average Humidity 72    
Maximum Humidity 93    
Minimum Humidity 44    
Precipitation  
Precipitation 0.01 in 0.14 in 1.65 in (1939)
Month to date precipitation 4.91  
Year to date precipitation 44.63  
Snow  
Snow 0.00 in - - ()
Month to date snowfall  
Since 1 July snowfall  
Since 1 September snowfall  
Snow Depth -    
Sea Level Pressure  
Sea Level Pressure 30.28 in    
Wind  
Wind Speed 5 mph (South)    
Max Wind Speed 17 mph    
Max Gust Speed 21 mph    
Visibility 10 miles    
Events      
T = Trace of Precipitation, MM = Missing Value Source: NWS Daily Summary

Daily Weather History Graph

Daily Weather History Graph

Search for Another Location

Airport or City:

Trip Planner

Search our weather history database for the weather conditions in past years. The results will help you decide how hot, cold, wet, or windy it might be!

Date:

Astronomy

Nov. 30, 2013 Rise Set
Actual Time 7:05 AM CST 5:10 PM CST
Civil Twilight 6:38 AM CST 5:37 PM CST
Nautical Twilight 6:07 AM CST 6:08 PM CST
Astronomical Twilight 5:37 AM CST 6:38 PM CST
Moon 4:23 AM CST 3:30 PM CST
Length of Visible Light 10h 59m
Length of Day
10h 04m
Waning Crescent, 7% of the Moon is Illuminated
Nov 30
Waning Crescent
Dec 2
New
Dec 9
First Quarter
Dec 17
Full
Dec 25
Last Quarter

Hourly Weather History & Observations

Time (CST) Temp. Windchill Dew Point Humidity Pressure Visibility Wind Dir Wind Speed Gust Speed Precip Events Conditions
12:15 AM 33.8 °F - 30.2 °F 87% 30.39 in 10.0 mi Calm Calm - N/A   Clear
12:35 AM 32.0 °F 28.7 °F 30.2 °F 93% 30.39 in 10.0 mi ESE 3.5 mph - N/A   Clear
12:55 AM 32.0 °F 28.7 °F 30.2 °F 93% 30.39 in 10.0 mi SE 3.5 mph - N/A   Clear
1:15 AM 32.0 °F 27.5 °F 30.2 °F 93% 30.38 in 10.0 mi SE 4.6 mph - N/A   Clear
1:35 AM 33.8 °F 29.6 °F 30.2 °F 87% 30.38 in 10.0 mi SE 4.6 mph - N/A   Clear
1:55 AM 33.8 °F - 28.4 °F 81% 30.38 in 10.0 mi Calm Calm - N/A   Clear
2:15 AM 33.8 °F 30.8 °F 30.2 °F 87% 30.38 in 10.0 mi East 3.5 mph - N/A   Scattered Clouds
2:35 AM 33.8 °F 28.6 °F 32.0 °F 93% 30.37 in 10.0 mi ESE 5.8 mph - N/A   Overcast
2:55 AM 35.6 °F 31.7 °F 32.0 °F 87% 30.36 in 10.0 mi SE 4.6 mph - N/A   Mostly Cloudy
3:15 AM 35.6 °F - 30.2 °F 81% 30.37 in 10.0 mi Calm Calm - N/A   Scattered Clouds
3:35 AM 35.6 °F 31.7 °F 30.2 °F 81% 30.36 in 10.0 mi ESE 4.6 mph - N/A   Clear
3:55 AM 35.6 °F 32.8 °F 30.2 °F 81% 30.35 in 10.0 mi ENE 3.5 mph - N/A   Mostly Cloudy
4:15 AM 33.8 °F 29.6 °F 30.2 °F 87% 30.35 in 10.0 mi East 4.6 mph - N/A   Overcast
4:35 AM 33.8 °F 30.8 °F 30.2 °F 87% 30.35 in 10.0 mi ENE 3.5 mph - N/A   Overcast
4:55 AM 33.8 °F - 30.2 °F 87% 30.35 in 10.0 mi Calm Calm - N/A   Overcast
5:15 AM 33.8 °F 30.8 °F 32.0 °F 93% 30.35 in 10.0 mi ENE 3.5 mph - N/A   Overcast
5:35 AM 33.8 °F 30.8 °F 32.0 °F 93% 30.35 in 10.0 mi ENE 3.5 mph - N/A   Mostly Cloudy
5:55 AM 33.8 °F 29.6 °F 32.0 °F 93% 30.35 in 10.0 mi ENE 4.6 mph - N/A   Overcast
6:15 AM 33.8 °F 28.6 °F 32.0 °F 93% 30.35 in 10.0 mi ENE 5.8 mph - N/A   Overcast
6:35 AM 33.8 °F 28.6 °F 32.0 °F 93% 30.36 in 10.0 mi ENE 5.8 mph - N/A   Mostly Cloudy
6:55 AM 33.8 °F 29.6 °F 30.2 °F 87% 30.35 in 10.0 mi East 4.6 mph - N/A   Mostly Cloudy
7:15 AM 33.8 °F 29.6 °F 30.2 °F 87% 30.36 in 10.0 mi East 4.6 mph - N/A   Scattered Clouds
7:35 AM 32.0 °F 28.7 °F 30.2 °F 93% 30.37 in 10.0 mi East 3.5 mph - N/A   Clear
7:55 AM 33.8 °F 27.7 °F 32.0 °F 93% 30.37 in 10.0 mi East 6.9 mph - N/A   Scattered Clouds
8:15 AM 35.6 °F 31.7 °F 32.0 °F 87% 30.37 in 10.0 mi East 4.6 mph - N/A   Scattered Clouds
8:35 AM 39.2 °F 35.9 °F 32.0 °F 75% 30.37 in 10.0 mi East 4.6 mph - N/A   Clear
8:55 AM 42.8 °F - 32.0 °F 66% 30.37 in 10.0 mi Calm Calm - 0.01 in   Clear
9:15 AM 44.6 °F 41.4 °F 33.8 °F 66% 30.37 in 10.0 mi South 5.8 mph - N/A   Clear
9:35 AM 48.2 °F - 33.8 °F 58% 30.37 in 10.0 mi SSW 9.2 mph - N/A   Clear
9:55 AM 50.0 °F - 33.8 °F 54% 30.37 in 10.0 mi SSW 11.5 mph - N/A   Scattered Clouds
10:15 AM 50.0 °F - 33.8 °F 54% 30.37 in 10.0 mi SW 8.1 mph - N/A   Scattered Clouds
10:35 AM 51.8 °F - 33.8 °F 50% 30.36 in 10.0 mi SSW 9.2 mph - N/A   Clear
10:55 AM 53.6 °F - 35.6 °F 51% 30.35 in 10.0 mi SSW 12.7 mph - N/A   Clear
11:15 AM 57.2 °F - 35.6 °F 44% 30.34 in 10.0 mi South 12.7 mph - N/A   Clear
11:35 AM 57.2 °F - 37.4 °F 48% 30.33 in 10.0 mi SSW 10.4 mph - N/A   Mostly Cloudy
11:55 AM 59.0 °F - 41.0 °F 51% 30.31 in 10.0 mi SSW 12.7 mph - N/A   Mostly Cloudy
12:15 PM 60.8 °F - 42.8 °F 52% 30.30 in 10.0 mi SW 13.8 mph 19.6 mph N/A   Mostly Cloudy
12:35 PM 60.8 °F - 42.8 °F 52% 30.28 in 10.0 mi SSW 16.1 mph - N/A   Mostly Cloudy
12:55 PM 60.8 °F - 42.8 °F 52% 30.27 in 10.0 mi SW 10.4 mph 19.6 mph N/A   Overcast
1:15 PM 60.8 °F - 44.6 °F 55% 30.26 in 10.0 mi WSW 11.5 mph - N/A   Overcast
1:35 PM 60.8 °F - 44.6 °F 55% 30.25 in 10.0 mi SW 13.8 mph 17.3 mph N/A   Overcast
1:55 PM 62.6 °F - 44.6 °F 52% 30.24 in 10.0 mi WSW 10.4 mph - N/A   Scattered Clouds
2:15 PM 62.6 °F - 44.6 °F 52% 30.23 in 10.0 mi SW 12.7 mph - N/A   Scattered Clouds
2:35 PM 62.6 °F - 44.6 °F 52% 30.22 in 10.0 mi WSW 12.7 mph - N/A   Scattered Clouds
2:55 PM 64.4 °F - 44.6 °F 49% 30.20 in 10.0 mi SW 13.8 mph 19.6 mph N/A   Scattered Clouds
3:15 PM 64.4 °F - 42.8 °F 45% 30.20 in 10.0 mi SSW 15.0 mph 20.7 mph N/A   Clear
3:35 PM 62.6 °F - 44.6 °F 52% 30.19 in 10.0 mi SW 17.3 mph - N/A   Clear
3:55 PM 62.6 °F - 44.6 °F 52% 30.19 in 10.0 mi SW 12.7 mph - N/A   Clear
4:15 PM 62.6 °F - 44.6 °F 52% 30.19 in 10.0 mi SSW 11.5 mph - N/A   Clear
4:35 PM 62.6 °F - 44.6 °F 52% 30.18 in 10.0 mi SW 8.1 mph - N/A   Clear
4:55 PM 60.8 °F - 44.6 °F 55% 30.18 in 10.0 mi SSW 4.6 mph - N/A   Clear
5:15 PM 59.0 °F - 44.6 °F 59% 30.18 in 10.0 mi SSW 5.8 mph - N/A   Clear
5:35 PM 55.4 °F - 44.6 °F 67% 30.17 in 10.0 mi South 4.6 mph - N/A   Clear
5:55 PM 55.4 °F - 44.6 °F 67% 30.17 in 10.0 mi South 5.8 mph - N/A   Clear
6:15 PM 53.6 °F - 44.6 °F 72% 30.18 in 10.0 mi South 4.6 mph - N/A   Clear
6:35 PM 53.6 °F - 44.6 °F 72% 30.18 in 10.0 mi Calm Calm - N/A   Clear
6:55 PM 53.6 °F - 44.6 °F 72% 30.19 in 10.0 mi Calm Calm - N/A   Scattered Clouds
7:15 PM 53.6 °F - 44.6 °F 72% 30.19 in 10.0 mi South 3.5 mph - N/A   Mostly Cloudy
7:35 PM 53.6 °F - 44.6 °F 72% 30.17 in 10.0 mi South 3.5 mph - N/A   Overcast
7:55 PM 53.6 °F - 44.6 °F 72% 30.18 in 10.0 mi South 3.5 mph - N/A   Scattered Clouds
8:15 PM 53.6 °F - 44.6 °F 72% 30.19 in 10.0 mi Calm Calm - N/A   Scattered Clouds
8:35 PM 53.6 °F - 44.6 °F 72% 30.19 in 10.0 mi SSW 5.8 mph - N/A   Mostly Cloudy
8:55 PM 53.6 °F - 44.6 °F 72% 30.19 in 10.0 mi South 6.9 mph - N/A   Overcast
9:15 PM 53.6 °F - 44.6 °F 72% 30.19 in 10.0 mi South 5.8 mph - N/A   Mostly Cloudy
9:35 PM 51.8 °F - 44.6 °F 76% 30.19 in 10.0 mi South 5.8 mph - N/A   Mostly Cloudy
9:55 PM 51.8 °F - 44.6 °F 76% 30.19 in 10.0 mi South 5.8 mph - N/A   Scattered Clouds
10:15 PM 51.8 °F - 44.6 °F 76% 30.19 in 10.0 mi South 5.8 mph - N/A   Scattered Clouds
10:35 PM 51.8 °F - 44.6 °F 76% 30.19 in 10.0 mi South 5.8 mph - N/A   Mostly Cloudy
10:55 PM 51.8 °F - 44.6 °F 76% 30.19 in 10.0 mi South 5.8 mph - N/A   Scattered Clouds
11:15 PM 50.0 °F - 44.6 °F 82% 30.19 in 10.0 mi South 5.8 mph - N/A   Scattered Clouds
11:35 PM 50.0 °F - 44.6 °F 82% 30.19 in 10.0 mi South 3.5 mph - N/A   Scattered Clouds
11:55 PM 50.0 °F - 44.6 °F 82% 30.19 in 10.0 mi SSE 3.5 mph - N/A   Mostly Cloudy